Weather in Lermontovka

Russia / Amur Oblast     50°05′02″N   127°51′45″E
temp.,
°C
wind,
m/s
gust,
m/s
humid.,
%
clouds,
%
prec.,
mm/h
press.,
hPa
HPBL,
m
18 january, mon
mon1800:00−29nnw349898 0.0 101963
03:00−29nnw379799 0.1 1019146
06:00−29nnw379799 0.0 1019156
09:00−29nnw399699 0.1 1021255
12:00−26nnw5993100 0.1 1022443
15:00−24nnw5889100 0.1 1022677
18:00−28nw348962 0.0 102534
21:00−30wnw238731 0.0 102619
19 january, tue
tue1900:00−31w22830 0.0 102819
03:00−31w23780 0.0 102719
06:00−31s22740 0.0 102819
09:00−30ssw23750 0.0 102720
12:00−25s23790 0.0 1028133
15:00−21sw23780 0.0 102679
18:00−24sw33720 0.0 102724
21:00−26ssw23809 0.0 102720
20 january, wed
wed2000:00−27s34896 0.0 102753
03:00−27s34903 0.0 102753
06:00−27s449137 0.0 102672
09:00−26sse479226 0.0 1025127
12:00−22sse4791100 0.0 1023383
15:00−20se4698100 1.1 1019274
18:00−20ese2498100 0.4 1019196
21:00−20n2299100 1.4 101942
21 january, thu
thu2100:00−24nnw489796 0.1 1021136
03:00−27nw489259 0.1 1024150
06:00−29nnw35900 0.0 102582
09:00−30nnw238941 0.0 102735
12:00−27nne238428 0.0 1027209
15:00−26ene118937 0.0 1026152
18:00−31s009569 0.0 102819
21:00−31sw119635 0.0 102819
22 january, fri
fri2200:00−32sw11980 0.0 102819
03:00−32nw11970 0.0 102919
06:00−32nnw22920 0.0 102919
09:00−31nw12890 0.0 103119
12:00−25nw24840 0.0 1031215
15:00−22sw11850 0.0 103123
18:00−27ssw12840 0.0 103219
21:00−27wsw22800 0.0 103319